CZ-4B DEB, 38314

Orbit data source: Space-Track

CZ-4B DEB, 38314 is space debris in SSO originally from a launch on Mon, 15 Aug 2011 UTC launched from the Taiyaun Space Center, China (TSC). Debris objects in space refer to the collection of defunct objects orbiting the Earth. Examples of debris include non-operational satellites, rocket bodies, and fragments generated from explosions, collisions, or faulty payload assembly.

Loading next visibility...
Identifier
38314, 2011-043D
Orbit
SSO
Country
Flag of CNCN / PRC
Related business
Manufacturer
Unknown
Mission
Spacecraft
Bus & Motor
Unknown
Mass
Unknown
Launch date (UTC)
2011-08-15 (15 years ago)
Launch vehicle
Unknown
Launch site
Taiyaun Space Center, China (TSC)
Object type
Payload
Rocket body
Debris
Shape & HBR
Unknown shape, 0.1 m
Radar Cross Section
Small (<0.1 m²)

Expand to show TLE details & history
Last TLE update: 2 weeks ago

TLE from 2 weeks ago
0 CZ-4B DEB
1 38314U 11043D   26159.50071968  .00000193  00000-0  33476-3 0  9996
2 38314  99.5337 259.2742 0265956 138.7048 285.0426 13.42366699646981
Epoch: 2026-06-08T12:01Z
TLE epoch observation values (Epoch: 2026-06-08T12:01:02.180Z)
Latitude
59.48996°
Longitude
165.6571°
Altitude
1,063.841 km
Speed
7.349 km/s
True Right ascension
16h 11m 12s
True Declination
59° 20' 44"
Sunlit
Object was in daylight at epoch
Visualization orbit readout
Latitude
Unknown
Longitude
Unknown
Altitude
Unknown
Speed
Unknown
Apparent Right ascension
Unknown
Apparent Declination
Unknown
Sunlit
N/A
Visualization observer readout
Local Sidereal Time
23:27:09
Azimuth
Unknown
Elevation
Unknown
Doppler factor
Unknown
Orbital elements
Apogee altitude
1,296.603 km
Perigee altitude
898.95 km
Semi-major axis
7,475.913 km
Eccentricity
0.0266
Inclination
99.5337°
RAAN
259.2742°
Arg. of periapsis
138.7048°
True anomaly
282.07512°
Mean anomaly
285.0426°
Eccentric anomaly
283.56127°
Mean motion
3.35774 °/min
Orbital period
107.22 mins
BSTAR
0.00033476
Loading maneuver chart data...
Computing Atmospheric mass density...
Loading historical data...
Loading historical data...
Loading historical data...
Loading historical data...
Loading historical data...
Loading historical data...
Loading historical data...

Documentation

Showing up to 5 results
|